Time,TemperatureF,DewpointF,PressureIn,WindDirection,WindDirectionDegrees,WindSpeedMPH,WindSpeedGustMPH,Humidity,HourlyPrecipIn,Conditions,Clouds,dailyrainin,SoftwareType,DateUTC
2013-05-17 00:03:00,56.0,32.0,-100.00,WNW,300,5.0,12.0,39,-99.99,,,-99.99,,2013-05-17 05:03:00,
2013-05-17 00:14:00,56.0,32.0,-100.00,WNW,300,5.0,12.0,39,-99.99,,,-99.99,,2013-05-17 05:14:00,
2013-05-17 00:22:00,56.0,32.0,-100.00,WNW,300,5.0,12.0,39,-99.99,,,-99.99,,2013-05-17 05:22:00,
2013-05-17 00:52:00,55.0,30.0,-100.00,WNW,300,5.0,14.0,39,-99.99,,,-99.99,,2013-05-17 05:52:00,
2013-05-17 01:02:00,55.0,30.0,-100.00,WNW,300,5.0,14.0,39,-99.99,,,-99.99,,2013-05-17 06:02:00,
2013-05-17 01:11:00,55.0,30.0,-100.00,WNW,300,5.0,14.0,39,-99.99,,,-99.99,,2013-05-17 06:11:00,
2013-05-17 01:21:00,55.0,30.0,-100.00,WNW,300,5.0,14.0,39,-99.99,,,-99.99,,2013-05-17 06:21:00,
2013-05-17 01:52:00,53.0,30.0,-100.00,WNW,295,5.0,9.0,40,-99.99,,,-99.99,,2013-05-17 06:52:00,
2013-05-17 02:02:00,53.0,30.0,-100.00,WNW,295,5.0,9.0,40,-99.99,,,-99.99,,2013-05-17 07:02:00,
2013-05-17 02:11:00,53.0,30.0,-100.00,WNW,295,5.0,9.0,40,-99.99,,,-99.99,,2013-05-17 07:11:00,
2013-05-17 02:21:00,53.0,30.0,-100.00,WNW,295,5.0,9.0,40,-99.99,,,-99.99,,2013-05-17 07:21:00,
2013-05-17 02:53:00,53.0,31.0,-100.00,WNW,295,6.0,12.0,42,-99.99,,,-99.99,,2013-05-17 07:53:00,
2013-05-17 03:02:00,53.0,31.0,-100.00,WNW,295,6.0,12.0,42,-99.99,,,-99.99,,2013-05-17 08:02:00,
2013-05-17 03:12:00,53.0,31.0,-100.00,WNW,295,6.0,12.0,42,-99.99,,,-99.99,,2013-05-17 08:12:00,
2013-05-17 03:23:00,53.0,31.0,-100.00,WNW,295,6.0,12.0,42,-99.99,,,-99.99,,2013-05-17 08:23:00,
2013-05-17 03:52:00,52.0,32.0,-100.00,WNW,295,6.0,12.0,46,-99.99,,,-99.99,,2013-05-17 08:52:00,
2013-05-17 04:02:00,52.0,32.0,-100.00,WNW,295,6.0,12.0,46,-99.99,,,-99.99,,2013-05-17 09:02:00,
2013-05-17 04:12:00,52.0,32.0,-100.00,WNW,295,6.0,12.0,46,-99.99,,,-99.99,,2013-05-17 09:12:00,
2013-05-17 04:22:00,52.0,32.0,-100.00,WNW,295,6.0,12.0,46,-99.99,,,-99.99,,2013-05-17 09:22:00,
2013-05-17 04:30:00,50.0,38.0,-100.00,WNW,290,4.0,11.0,62,-99.99,,,-99.99,,2013-05-17 09:30:00,
2013-05-17 04:53:00,50.0,38.0,-100.00,WNW,290,4.0,11.0,62,-99.99,,,-99.99,,2013-05-17 09:53:00,
2013-05-17 05:03:00,50.0,38.0,-100.00,WNW,290,4.0,11.0,62,-99.99,,,-99.99,,2013-05-17 10:03:00,
2013-05-17 05:12:00,50.0,38.0,-100.00,WNW,290,4.0,11.0,62,-99.99,,,-99.99,,2013-05-17 10:12:00,
2013-05-17 05:23:00,50.0,38.0,-100.00,WNW,290,4.0,11.0,62,-99.99,,,-99.99,,2013-05-17 10:23:00,
2013-05-17 05:31:00,49.0,39.0,-100.00,West,275,4.0,7.0,68,-99.99,,,-99.99,,2013-05-17 10:31:00,
2013-05-17 05:54:00,49.0,39.0,-100.00,West,275,4.0,7.0,68,-99.99,,,-99.99,,2013-05-17 10:54:00,
2013-05-17 06:02:00,49.0,39.0,-100.00,West,275,4.0,7.0,68,-99.99,,,-99.99,,2013-05-17 11:02:00,
2013-05-17 06:12:00,49.0,39.0,-100.00,West,275,4.0,7.0,68,-99.99,,,-99.99,,2013-05-17 11:12:00,
2013-05-17 06:23:00,49.0,39.0,-100.00,West,275,4.0,7.0,68,-99.99,,,-99.99,,2013-05-17 11:23:00,
2013-05-17 06:31:00,47.0,42.0,-100.00,NNW,335,0.0,4.0,83,-99.99,,,-99.99,,2013-05-17 11:31:00,
2013-05-17 06:53:00,47.0,42.0,-100.00,NNW,335,0.0,4.0,83,-99.99,,,-99.99,,2013-05-17 11:53:00,
2013-05-17 07:03:00,47.0,42.0,-100.00,NNW,335,0.0,4.0,83,-99.99,,,-99.99,,2013-05-17 12:03:00,
2013-05-17 07:12:00,47.0,42.0,-100.00,NNW,335,0.0,4.0,83,-99.99,,,-99.99,,2013-05-17 12:12:00,
2013-05-17 07:23:00,47.0,42.0,-100.00,NNW,335,0.0,4.0,83,-99.99,,,-99.99,,2013-05-17 12:23:00,
2013-05-17 07:32:00,47.0,43.0,-100.00,NW,305,3.0,7.0,87,-99.99,,,-99.99,,2013-05-17 12:32:00,
2013-05-17 07:53:00,47.0,43.0,-100.00,NW,305,3.0,7.0,87,-99.99,,,-99.99,,2013-05-17 12:53:00,
2013-05-17 08:03:00,47.0,43.0,-100.00,NW,305,3.0,7.0,87,-99.99,,,-99.99,,2013-05-17 13:03:00,
2013-05-17 08:12:00,47.0,43.0,-100.00,NW,305,3.0,7.0,87,-99.99,,,-99.99,,2013-05-17 13:12:00,
2013-05-17 08:23:00,47.0,43.0,-100.00,NW,305,3.0,7.0,87,-99.99,,,-99.99,,2013-05-17 13:23:00,
2013-05-17 08:32:00,47.0,43.0,-100.00,WNW,300,1.0,5.0,88,-99.99,,,-99.99,,2013-05-17 13:32:00,
2013-05-17 08:52:00,47.0,43.0,-100.00,WNW,300,1.0,5.0,88,-99.99,,,-99.99,,2013-05-17 13:52:00,
2013-05-17 09:02:00,47.0,43.0,-100.00,WNW,300,1.0,5.0,88,-99.99,,,-99.99,,2013-05-17 14:02:00,
2013-05-17 09:13:00,47.0,43.0,-100.00,WNW,300,1.0,5.0,88,-99.99,,,-99.99,,2013-05-17 14:13:00,
2013-05-17 09:22:00,47.0,43.0,-100.00,WNW,300,1.0,5.0,88,-99.99,,,-99.99,,2013-05-17 14:22:00,
2013-05-17 09:33:00,47.0,44.0,-100.00,NW,305,2.0,7.0,88,-99.99,,,-99.99,,2013-05-17 14:33:00,
2013-05-17 09:53:00,47.0,44.0,-100.00,NW,305,2.0,7.0,88,-99.99,,,-99.99,,2013-05-17 14:53:00,
2013-05-17 10:03:00,47.0,44.0,-100.00,NW,305,2.0,7.0,88,-99.99,,,-99.99,,2013-05-17 15:03:00,
2013-05-17 10:14:00,47.0,44.0,-100.00,NW,305,2.0,7.0,88,-99.99,,,-99.99,,2013-05-17 15:14:00,
2013-05-17 10:25:00,47.0,44.0,-100.00,NW,305,2.0,7.0,88,-99.99,,,-99.99,,2013-05-17 15:25:00,
2013-05-17 10:33:00,48.0,44.0,-100.00,WNW,300,6.0,17.0,88,-99.99,,,-99.99,,2013-05-17 15:33:00,
2013-05-17 10:57:00,48.0,44.0,-100.00,WNW,300,6.0,17.0,88,-99.99,,,-99.99,,2013-05-17 15:57:00,
2013-05-17 11:07:00,48.0,44.0,-100.00,WNW,300,6.0,17.0,88,-99.99,,,-99.99,,2013-05-17 16:07:00,
2013-05-17 11:13:00,48.0,44.0,-100.00,WNW,300,6.0,17.0,88,-99.99,,,-99.99,,2013-05-17 16:13:00,
2013-05-17 11:26:00,48.0,44.0,-100.00,WNW,300,6.0,17.0,88,-99.99,,,-99.99,,2013-05-17 16:26:00,
2013-05-17 11:33:00,51.0,-99.9,-100.00,WSW,245,1.0,8.0,88,-99.99,,,-99.99,,2013-05-17 16:33:00,
2013-05-17 11:56:00,51.0,47.0,-100.00,WSW,245,1.0,8.0,88,-99.99,,,-99.99,,2013-05-17 16:56:00,
2013-05-17 12:08:00,51.0,47.0,-100.00,WSW,245,1.0,8.0,88,-99.99,,,-99.99,,2013-05-17 17:08:00,
2013-05-17 12:19:00,51.0,47.0,-100.00,WSW,245,1.0,8.0,88,-99.99,,,-99.99,,2013-05-17 17:19:00,
2013-05-17 12:30:00,51.0,47.0,-100.00,WSW,245,1.0,8.0,88,-99.99,,,-99.99,,2013-05-17 17:30:00,
2013-05-17 12:33:00,51.0,-99.9,-100.00,NW,305,4.0,8.0,87,-99.99,,,-99.99,,2013-05-17 17:33:00,
2013-05-17 13:00:00,51.0,-99.9,-100.00,NW,305,4.0,8.0,87,-99.99,,,-99.99,,2013-05-17 18:00:00,
2013-05-17 13:09:00,51.0,47.0,-100.00,NW,305,4.0,8.0,87,-99.99,,,-99.99,,2013-05-17 18:09:00,
2013-05-17 13:20:00,51.0,47.0,-100.00,NW,305,4.0,8.0,87,-99.99,,,-99.99,,2013-05-17 18:20:00,
2013-05-17 13:30:00,51.0,47.0,-100.00,NW,305,4.0,8.0,87,-99.99,,,-99.99,,2013-05-17 18:30:00,
2013-05-17 13:33:00,52.0,48.0,-100.00,WNW,300,4.0,8.0,87,-99.99,,,-99.99,,2013-05-17 18:33:00,
2013-05-17 14:00:00,52.0,-99.9,-100.00,WNW,300,4.0,8.0,87,-99.99,,,-99.99,,2013-05-17 19:00:00,
2013-05-17 14:10:00,52.0,48.0,-100.00,WNW,300,4.0,8.0,87,-99.99,,,-99.99,,2013-05-17 19:10:00,
2013-05-17 14:20:00,52.0,48.0,-100.00,WNW,300,4.0,8.0,87,-99.99,,,-99.99,,2013-05-17 19:20:00,
2013-05-17 14:30:00,52.0,48.0,-100.00,WNW,300,4.0,8.0,87,-99.99,,,-99.99,,2013-05-17 19:30:00,
2013-05-17 15:01:00,-999.0,-99.9,-100.00,NW,325,2.0,10.0,86,-99.99,,,-99.99,,2013-05-17 20:01:00,
2013-05-17 15:09:00,52.0,48.0,-100.00,NW,325,2.0,10.0,86,-99.99,,,-99.99,,2013-05-17 20:09:00,
2013-05-17 15:20:00,52.0,48.0,-100.00,NW,325,2.0,10.0,86,-99.99,,,-99.99,,2013-05-17 20:20:00,
2013-05-17 15:34:00,54.0,48.0,-100.00,WNW,295,3.0,9.0,80,-99.99,,,-99.99,,2013-05-17 20:34:00,
2013-05-17 15:58:00,54.0,48.0,-100.00,WNW,295,3.0,9.0,80,-99.99,,,-99.99,,2013-05-17 20:58:00,
2013-05-17 16:07:00,54.0,48.0,-100.00,WNW,295,3.0,9.0,80,-99.99,,,-99.99,,2013-05-17 21:07:00,
2013-05-17 16:17:00,54.0,48.0,-100.00,WNW,295,3.0,9.0,80,-99.99,,,-99.99,,2013-05-17 21:17:00,
2013-05-17 16:26:00,54.0,48.0,-100.00,WNW,295,3.0,9.0,80,-99.99,,,-99.99,,2013-05-17 21:26:00,
2013-05-17 16:32:00,53.0,46.0,-100.00,North,0,1.0,4.0,80,-99.99,,,-99.99,,2013-05-17 21:32:00,
2013-05-17 16:58:00,53.0,46.0,-100.00,North,0,1.0,4.0,80,-99.99,,,-99.99,,2013-05-17 21:58:00,
2013-05-17 17:07:00,53.0,46.0,-100.00,North,0,1.0,4.0,80,-99.99,,,-99.99,,2013-05-17 22:07:00,
2013-05-17 17:17:00,53.0,46.0,-100.00,North,0,1.0,4.0,80,-99.99,,,-99.99,,2013-05-17 22:17:00,
2013-05-17 17:28:00,53.0,46.0,-100.00,North,0,1.0,4.0,80,-99.99,,,-99.99,,2013-05-17 22:28:00,
2013-05-17 17:34:00,54.0,49.0,-100.00,WNW,300,2.0,11.0,82,-99.99,,,-99.99,,2013-05-17 22:34:00,
2013-05-17 17:55:00,54.0,49.0,-100.00,WNW,300,2.0,11.0,82,-99.99,,,-99.99,,2013-05-17 22:55:00,
2013-05-17 18:04:00,54.0,49.0,-100.00,WNW,300,2.0,11.0,82,-99.99,,,-99.99,,2013-05-17 23:04:00,
2013-05-17 18:13:00,54.0,49.0,-100.00,WNW,300,2.0,11.0,82,-99.99,,,-99.99,,2013-05-17 23:13:00,
2013-05-17 18:23:00,54.0,49.0,-100.00,WNW,300,2.0,11.0,82,-99.99,,,-99.99,,2013-05-17 23:23:00,
2013-05-17 18:33:00,54.0,47.0,-100.00,WNW,300,3.0,10.0,77,-99.99,,,-99.99,,2013-05-17 23:33:00,
2013-05-17 18:54:00,54.0,47.0,-100.00,WNW,300,3.0,10.0,77,-99.99,,,-99.99,,2013-05-17 23:54:00,
2013-05-17 19:02:00,54.0,47.0,-100.00,WNW,300,3.0,10.0,77,-99.99,,,-99.99,,2013-05-18 00:02:00,
2013-05-17 19:14:00,54.0,47.0,-100.00,WNW,300,3.0,10.0,77,-99.99,,,-99.99,,2013-05-18 00:14:00,
2013-05-17 19:22:00,54.0,47.0,-100.00,WNW,300,3.0,10.0,77,-99.99,,,-99.99,,2013-05-18 00:22:00,
2013-05-17 19:32:00,54.0,47.0,-100.00,NW,305,4.0,11.0,78,-99.99,,,-99.99,,2013-05-18 00:32:00,
2013-05-17 19:54:00,54.0,47.0,-100.00,NW,305,4.0,11.0,78,-99.99,,,-99.99,,2013-05-18 00:54:00,
2013-05-17 20:03:00,54.0,47.0,-100.00,NW,305,4.0,11.0,78,-99.99,,,-99.99,,2013-05-18 01:03:00,
2013-05-17 20:13:00,54.0,47.0,-100.00,NW,305,4.0,11.0,78,-99.99,,,-99.99,,2013-05-18 01:13:00,
2013-05-17 20:24:00,54.0,47.0,-100.00,NW,305,4.0,11.0,78,-99.99,,,-99.99,,2013-05-18 01:24:00,
2013-05-17 20:52:00,52.0,47.0,-100.00,NW,325,1.0,7.0,81,-99.99,,,-99.99,,2013-05-18 01:52:00,
2013-05-17 21:02:00,52.0,47.0,-100.00,NW,325,1.0,7.0,81,-99.99,,,-99.99,,2013-05-18 02:02:00,
2013-05-17 21:12:00,52.0,47.0,-100.00,NW,325,1.0,7.0,81,-99.99,,,-99.99,,2013-05-18 02:12:00,
2013-05-17 21:22:00,52.0,47.0,-100.00,NW,325,1.0,7.0,81,-99.99,,,-99.99,,2013-05-18 02:22:00,
2013-05-17 21:31:00,52.0,47.0,-100.00,NW,325,1.0,7.0,81,-99.99,,,-99.99,,2013-05-18 02:31:00,
2013-05-17 21:32:00,51.0,47.0,-100.00,WNW,295,2.0,7.0,84,-99.99,,,-99.99,,2013-05-18 02:32:00,
2013-05-17 21:54:00,51.0,47.0,-100.00,WNW,295,2.0,7.0,84,-99.99,,,-99.99,,2013-05-18 02:54:00,
2013-05-17 22:03:00,51.0,47.0,-100.00,WNW,295,2.0,7.0,84,-99.99,,,-99.99,,2013-05-18 03:03:00,
2013-05-17 22:12:00,51.0,47.0,-100.00,WNW,295,2.0,7.0,84,-99.99,,,-99.99,,2013-05-18 03:12:00,
2013-05-17 22:22:00,51.0,47.0,-100.00,WNW,295,2.0,7.0,84,-99.99,,,-99.99,,2013-05-18 03:22:00,
2013-05-17 23:03:00,51.0,47.0,-100.00,WNW,295,5.0,10.0,85,-99.99,,,-99.99,,2013-05-18 04:03:00,
2013-05-17 23:12:00,51.0,47.0,-100.00,WNW,295,5.0,10.0,85,-99.99,,,-99.99,,2013-05-18 04:12:00,
2013-05-17 23:23:00,51.0,47.0,-100.00,WNW,295,5.0,10.0,85,-99.99,,,-99.99,,2013-05-18 04:23:00,
2013-05-17 23:33:00,51.0,47.0,-100.00,WNW,295,5.0,10.0,85,-99.99,,,-99.99,,2013-05-18 04:33:00,
2013-05-17 23:52:00,51.0,46.0,-100.00,WNW,300,6.0,10.0,85,-99.99,,,-99.99,,2013-05-18 04:52:00,